Погода в Санболях

Россия / Хабаровский край     49°22′03″N   135°10′32″E
темп.,
°C
ветер,
м/с
пор.,
м/с
влажн.,
%
обл.,
%
осадки,
мм/ч
давл.,
гПа
погр.,
м
27 января, чт
чт2701:00−28зсз1110099 0.0 10249
04:00−29зсз1110099 0.1 10249
07:00−30зсз11100100 0.0 10249
10:00−25юв0099100 0.1 102447
13:00−19юв119399 0.1 1023227
16:00−17в229399 0.1 1022222
19:00−23юз1110088 0.1 102213
22:00−24з1199100 0.1 102115
28 января, пт
пт2801:00−25зюз11100100 0.1 102011
04:00−27з1110098 0.1 101910
07:00−29з11100100 0.0 101810
10:00−24зюз1197100 0.1 101786
13:00−20ююв1192100 0.1 1016290
16:00−19вюв1191100 0.3 1014294
19:00−21вюв11100100 0.1 10149
22:00−22в01100100 0.2 10139
29 января, сб
сб2901:00−23с00100100 0.1 10129
04:00−26зсз11100100 0.1 10129
07:00−28з1110077 0.1 10129
10:00−24юз019990 0.1 101349
13:00−20юв119399 0.1 1012248
16:00−20вюв119390 0.1 1012149
19:00−28ю1110066 0.0 10139
22:00−31з1110080 0.0 10139
30 января, вс
вс3001:00−33зсз1110026 0.0 10149
04:00−34зсз1110022 0.0 10159
07:00−36з1110022 0.0 10169
10:00−32сз019971 0.0 101729
13:00−25вюв119357 0.0 1018144
16:00−24в119414 0.0 1019103
19:00−31ююз1110011 0.0 10219
22:00−33зсз0010017 0.0 10239
31 января, пн
пн3101:00−34з1110015 0.0 10249
04:00−34з1110067 0.0 10259
07:00−35зюз0010055 0.0 10259
10:00−31сз1110086 0.0 102634
13:00−23ююв119382 0.0 1024204
16:00−19в019198 0.0 1023177
19:00−27зюз111008 0.0 102410
22:00−30з1110010 0.0 10249